Voltar ao catálogo

STARLINK-5703

AtivoComunicaçõesVLEO
NORAD 55593·PAYLOAD·🇺🇸 United States

Lançado Feb 12, 2023 de Cape Canaveral Space Force Station

Loading…

Próximas Passagens (próximas 24 horas)

TLE

AtualizadoSource: CelesTrak SupGP

Época: Sep 15, 2026, 01:38 UTC

1 55593C 23020AA  26258.06854167 -.00032438  00000+0 -11749-2 0  2587
2 55593  43.0021  15.3313 0001312 269.6307 319.2829 15.27593487    11

Acompanhe STARLINK-5703 em tempo real com AllMySat

Download on the App Store